• Em Portugal
  • Lista de países
  • Para 7 dias
  • Temperatura da água
  • Mapas de satélite
  • Mapa do tempo
  • Widgets de tempo
  • user-avatar
    Iniciar Sessão

    Previsão horária em Tuzla

    Hoje, 20 Outubro, Sexta-feira

    Tempo Temperatura Precipitação Vento Pressão Humidade
    00:00 +13°C° 0 mm 1 m/s 723 mmHg 67%
    01:00 +13°C° 0 mm 1 m/s 723 mmHg 69%
    02:00 +13°C° 0 mm 1 m/s 723 mmHg 71%
    03:00 +13°C° 0 mm 1 m/s 723 mmHg 73%
    04:00 +12°C° 0 mm 1 m/s 723 mmHg 74%
    05:00 +12°C° 0 mm 1 m/s 723 mmHg 74%
    06:00 +13°C° 0 mm 1 m/s 723 mmHg 74%
    07:00 +13°C° 0 mm 1 m/s 723 mmHg 71%
    08:00 +16°C° 0 mm 1 m/s 724 mmHg 61%
    09:00 +19°C° 0 mm 1 m/s 724 mmHg 52%
    10:00 +22°C° 0 mm 1 m/s 724 mmHg 43%
    11:00 +23°C° 0 mm 1 m/s 724 mmHg 39%
    12:00 +24°C° 0 mm 1 m/s 724 mmHg 36%
    13:00 +25°C° 0 mm 1 m/s 724 mmHg 33%
    14:00 +24°C° 0 mm 1 m/s 724 mmHg 38%
    15:00 +23°C° 0 mm 1 m/s 724 mmHg 42%
    16:00 +22°C° 0 mm 1 m/s 723 mmHg 47%
    17:00 +20°C° 0 mm 1 m/s 723 mmHg 52%
    18:00 +18°C° 0 mm 1 m/s 723 mmHg 58%
    19:00 +15°C° 0 mm 1 m/s 724 mmHg 63%
    20:00 +14°C° 0 mm 1 m/s 724 mmHg 66%
    21:00 +14°C° 0 mm 1 m/s 724 mmHg 68%
    22:00 +13°C° 0 mm 1 m/s 724 mmHg 71%
    23:00 +13°C° 0 mm 1 m/s 724 mmHg 73%

    Amanhã, 21 Outubro, Sábado

    Tempo Temperatura Precipitação Vento Pressão Humidade
    00:00 +13°C° 0 mm 1 m/s 724 mmHg 75%
    01:00 +12°C° 0 mm 1 m/s 724 mmHg 77%
    02:00 +12°C° 0 mm 1 m/s 724 mmHg 78%
    03:00 +12°C° 0 mm 1 m/s 724 mmHg 80%
    04:00 +11°C° 0 mm 1 m/s 724 mmHg 81%
    05:00 +12°C° 0 mm 1 m/s 724 mmHg 80%
    06:00 +12°C° 0 mm 1 m/s 724 mmHg 79%
    07:00 +12°C° 0 mm 1 m/s 724 mmHg 78%
    08:00 +15°C° 0 mm 1 m/s 724 mmHg 67%
    09:00 +19°C° 0 mm 1 m/s 725 mmHg 56%
    10:00 +22°C° 0 mm 1 m/s 725 mmHg 45%
    11:00 +22°C° 0 mm 1 m/s 725 mmHg 42%
    12:00 +23°C° 0 mm 1 m/s 725 mmHg 38%
    13:00 +24°C° 0 mm 1 m/s 724 mmHg 35%
    14:00 +23°C° 0 mm 1 m/s 724 mmHg 39%
    15:00 +22°C° 0 mm 1 m/s 724 mmHg 44%
    16:00 +21°C° 0 mm 1 m/s 723 mmHg 48%
    17:00 +19°C° 0 mm 1 m/s 723 mmHg 54%
    18:00 +16°C° 0 mm 1 m/s 723 mmHg 60%
    19:00 +13°C° 0 mm 0 m/s 723 mmHg 66%
    20:00 +14°C° 0 mm 1 m/s 723 mmHg 68%
    21:00 +13°C° 0 mm 1 m/s 723 mmHg 69%
    22:00 +13°C° 0 mm 1 m/s 723 mmHg 71%
    23:00 +13°C° 0 mm 1 m/s 723 mmHg 73%

    Depois de amanhã, 22 Outubro, Domingo

    Tempo Temperatura Precipitação Vento Pressão Humidade
    00:00 +12°C° 0 mm 1 m/s 723 mmHg 74%
    01:00 +12°C° 0 mm 1 m/s 723 mmHg 76%
    02:00 +12°C° 0 mm 1 m/s 723 mmHg 77%
    03:00 +12°C° 0 mm 1 m/s 722 mmHg 78%
    04:00 +11°C° 0 mm 1 m/s 722 mmHg 79%
    05:00 +12°C° 0 mm 1 m/s 722 mmHg 79%
    06:00 +12°C° 0 mm 1 m/s 722 mmHg 78%
    07:00 +12°C° 0 mm 1 m/s 722 mmHg 78%
    08:00 +15°C° 0 mm 1 m/s 722 mmHg 69%
    09:00 +18°C° 0 mm 1 m/s 722 mmHg 59%
    10:00 +21°C° 0 mm 1 m/s 722 mmHg 50%
    11:00 +22°C° 0 mm 1 m/s 722 mmHg 47%
    12:00 +23°C° 0 mm 1 m/s 721 mmHg 44%
    13:00 +23°C° 0 mm 1 m/s 721 mmHg 42%
    14:00 +22°C° 0,1 mm 1 m/s 720 mmHg 47%
    15:00 +21°C° 0,1 mm 1 m/s 719 mmHg 53%
    16:00 +20°C° 0,1 mm 1 m/s 719 mmHg 59%
    17:00 +19°C° 0,3 mm 1 m/s 718 mmHg 65%
    18:00 +18°C° 0,3 mm 1 m/s 718 mmHg 71%
    19:00 +15°C° 0,3 mm 1 m/s 718 mmHg 77%
    20:00 +15°C° 1,6 mm 1 m/s 718 mmHg 82%
    21:00 +15°C° 1,6 mm 2 m/s 718 mmHg 86%
    22:00 +14°C° 1,6 mm 2 m/s 718 mmHg 91%
    23:00 +14°C° 1,5 mm 2 m/s 718 mmHg 92%

    23 Outubro, Segunda-feira

    Tempo Temperatura Precipitação Vento Pressão Humidade
    00:00 +13°C° 1,5 mm 2 m/s 717 mmHg 93%
    01:00 +13°C° 1,5 mm 2 m/s 717 mmHg 94%
    02:00 +12°C° 3,6 mm 2 m/s 717 mmHg 94%
    03:00 +10°C° 3,6 mm 3 m/s 716 mmHg 94%
    04:00 +9°C° 3,6 mm 3 m/s 716 mmHg 94%
    05:00 +9°C° 1,5 mm 3 m/s 716 mmHg 93%
    06:00 +8°C° 1,5 mm 3 m/s 716 mmHg 93%
    07:00 +8°C° 1,5 mm 3 m/s 716 mmHg 93%
    08:00 +8°C° 1,8 mm 3 m/s 716 mmHg 92%
    09:00 +8°C° 1,8 mm 3 m/s 717 mmHg 91%
    10:00 +7°C° 1,8 mm 3 m/s 717 mmHg 90%
    11:00 +7°C° 0,7 mm 3 m/s 717 mmHg 89%
    12:00 +8°C° 0,7 mm 3 m/s 717 mmHg 87%
    13:00 +8°C° 0,7 mm 3 m/s 717 mmHg 86%
    14:00 +8°C° 0,3 mm 3 m/s 717 mmHg 86%
    15:00 +8°C° 0,3 mm 3 m/s 717 mmHg 86%
    16:00 +8°C° 0,3 mm 3 m/s 717 mmHg 86%
    17:00 +8°C° 0,3 mm 3 m/s 718 mmHg 87%
    18:00 +7°C° 0,3 mm 3 m/s 718 mmHg 88%
    19:00 +7°C° 0,3 mm 2 m/s 718 mmHg 88%
    20:00 +7°C° 0,4 mm 3 m/s 718 mmHg 88%
    21:00 +7°C° 0,4 mm 3 m/s 718 mmHg 88%
    22:00 +7°C° 0,4 mm 3 m/s 718 mmHg 88%
    23:00 +7°C° 0,3 mm 3 m/s 718 mmHg 89%

    24 Outubro, Terça-feira

    Tempo Temperatura Precipitação Vento Pressão Humidade
    00:00 +7°C° 0,3 mm 3 m/s 718 mmHg 89%
    01:00 +5°C° 0,3 mm 3 m/s 718 mmHg 89%
    02:00 +5°C° 0,2 mm 3 m/s 718 mmHg 89%
    03:00 +5°C° 0,2 mm 3 m/s 718 mmHg 90%
    04:00 +5°C° 0,2 mm 3 m/s 718 mmHg 90%
    05:00 +5°C° 0,3 mm 4 m/s 718 mmHg 90%
    06:00 +5°C° 0,3 mm 4 m/s 718 mmHg 90%
    07:00 +5°C° 0,3 mm 4 m/s 719 mmHg 90%
    08:00 +6°C° 0,3 mm 4 m/s 719 mmHg 88%
    09:00 +6°C° 0,3 mm 4 m/s 719 mmHg 86%
    10:00 +7°C° 0,3 mm 4 m/s 719 mmHg 84%
    11:00 +7°C° 0,2 mm 4 m/s 719 mmHg 84%
    12:00 +7°C° 0,2 mm 4 m/s 719 mmHg 85%
    13:00 +7°C° 0,2 mm 4 m/s 719 mmHg 85%
    14:00 +7°C° 0,4 mm 4 m/s 719 mmHg 86%
    15:00 +7°C° 0,4 mm 4 m/s 719 mmHg 87%
    16:00 +7°C° 0,4 mm 4 m/s 720 mmHg 88%
    17:00 +7°C° 0,6 mm 4 m/s 720 mmHg 88%
    18:00 +7°C° 0,6 mm 4 m/s 721 mmHg 89%
    19:00 +7°C° 0,6 mm 4 m/s 721 mmHg 89%
    20:00 +7°C° 0,3 mm 4 m/s 721 mmHg 89%
    21:00 +7°C° 0,3 mm 4 m/s 721 mmHg 89%
    22:00 +7°C° 0,3 mm 4 m/s 722 mmHg 89%
    23:00 +7°C° 0,2 mm 4 m/s 722 mmHg 90%

    25 Outubro, Quarta-feira

    Tempo Temperatura Precipitação Vento Pressão Humidade
    00:00 +8°C° 0,2 mm 3 m/s 722 mmHg 90%
    01:00 +7°C° 0,2 mm 3 m/s 723 mmHg 91%
    02:00 +7°C° 0,2 mm 3 m/s 723 mmHg 91%
    03:00 +7°C° 0,2 mm 3 m/s 723 mmHg 92%
    04:00 +7°C° 0,2 mm 3 m/s 723 mmHg 92%
    05:00 +7°C° 0,1 mm 3 m/s 724 mmHg 92%
    06:00 +7°C° 0,1 mm 3 m/s 724 mmHg 92%
    07:00 +7°C° 0,1 mm 3 m/s 725 mmHg 92%
    08:00 +7°C° 0,1 mm 2 m/s 725 mmHg 91%
    09:00 +8°C° 0,1 mm 2 m/s 726 mmHg 89%
    10:00 +8°C° 0,1 mm 2 m/s 726 mmHg 87%
    11:00 +9°C° 0 mm 2 m/s 726 mmHg 84%
    12:00 +10°C° 0 mm 2 m/s 726 mmHg 82%
    13:00 +12°C° 0 mm 2 m/s 726 mmHg 79%
    14:00 +12°C° 0 mm 2 m/s 727 mmHg 80%
    15:00 +10°C° 0 mm 2 m/s 727 mmHg 81%
    16:00 +11°C° 0 mm 1 m/s 727 mmHg 82%
    17:00 +11°C° 0 mm 1 m/s 727 mmHg 84%
    18:00 +10°C° 0 mm 1 m/s 728 mmHg 87%
    19:00 +9°C° 0 mm 1 m/s 728 mmHg 89%
    20:00 +9°C° 0 mm 1 m/s 728 mmHg 90%
    21:00 +8°C° 0 mm 1 m/s 729 mmHg 90%
    22:00 +8°C° 0 mm 1 m/s 729 mmHg 91%
    23:00 +8°C° 0 mm 1 m/s 729 mmHg 91%
    Mostrar mais